Washington, VA

10:56 PM EDT on April 27, 2017 (GMT -0400)
Ronald Reagan Washington National

Weather History for KDCA - December, 2013

Change the Weather History Date:

Saturday, December 7, 2013

  Actual Average Record
Temperature  
Mean Temperature 39 °F 42 °F  
Max Temperature 45 °F 49 °F 79 °F (1998)
Min Temperature 33 °F 35 °F 10 °F (1882)
Degree Days  
Heating Degree Days 26 23  
Month to date heating degree days 121 154  
Since 1 July heating degree days 829 849  
Cooling Degree Days 0 0  
Month to date cooling degree days 0 0  
Year to date cooling degree days 1719 1549  
Moisture  
Dew Point 31 °F    
Average Humidity 67    
Maximum Humidity 86    
Minimum Humidity 48    
Precipitation  
Precipitation 0.16 in 0.11 in 3.10 in (2011)
Month to date precipitation 0.79 0.76  
Year to date precipitation 39.50 37.45  
Snow  
Snow 0.00 in 0.10 in 1.00 in (1910)
Month to date snowfall 0.0 0.4  
Since 1 July snowfall T 0.9  
Snow Depth 0.00 in    
Sea Level Pressure  
Sea Level Pressure 30.34 in    
Wind  
Wind Speed 13 mph (NNW)    
Max Wind Speed 20 mph    
Max Gust Speed 23 mph    
Visibility 9 miles    
Events Rain    
T = Trace of Precipitation, MM = Missing Value Source: NWS Daily Summary

Daily Weather History Graph

Daily Weather History Graph

Search for Another Location

Airport or City:

Trip Planner

Search our weather history database for the weather conditions in past years. The results will help you decide how hot, cold, wet, or windy it might be!

Date:

Astronomy

Dec. 07, 2013 Rise Set
Actual Time 7:13 AM EST 4:46 PM EST
Civil Twilight 6:43 AM EST 5:15 PM EST
Nautical Twilight 6:10 AM EST 5:49 PM EST
Astronomical Twilight 5:38 AM EST 6:21 PM EST
Moon 10:59 AM EST (12/7) 10:23 PM EST (12/7)
Length of Visible Light 10h 32m
Length of Day
9h 32m
Waxing Crescent, 29% of the Moon is Illuminated
Dec 7
Waxing Crescent
Dec 9
First Quarter
Dec 17
Full
Dec 25
Last Quarter
Jan 1
New

Hourly Weather History & Observations

Time (EST) Temp. Windchill Dew Point Humidity Pressure Visibility Wind Dir Wind Speed Gust Speed Precip Events Conditions
12:21 AM 41.0 °F 34.3 °F 37.4 °F 87% 30.17 in 8.0 mi North 11.5 mph - 0.02 in Rain Rain
12:52 AM 39.9 °F 33.4 °F 36.0 °F 86% 30.17 in 5.0 mi North 10.4 mph - 0.06 in Rain Rain
1:11 AM 39.2 °F 31.6 °F 35.6 °F 87% 30.16 in 8.0 mi North 12.7 mph - 0.07 in Rain Light Rain
1:21 AM 39.2 °F 31.2 °F 35.6 °F 87% 30.17 in 10.0 mi North 13.8 mph - 0.07 in Rain Light Rain
1:52 AM 39.9 °F 33.9 °F 36.0 °F 86% 30.18 in 10.0 mi North 9.2 mph - 0.11 in Rain Light Rain
2:03 AM 39.2 °F 31.6 °F 35.6 °F 87% 30.20 in 10.0 mi NNW 12.7 mph - 0.00 in Rain Light Rain
2:14 AM 39.2 °F 31.2 °F 35.6 °F 87% 30.20 in 10.0 mi North 13.8 mph - 0.00 in   Overcast
2:24 AM 39.2 °F 30.5 °F 35.6 °F 87% 30.20 in 10.0 mi North 16.1 mph - 0.00 in   Overcast
2:31 AM 39.2 °F 32.5 °F 35.6 °F 87% 30.21 in 10.0 mi North 10.4 mph - 0.00 in   Overcast
2:45 AM 39.2 °F 30.5 °F 35.6 °F 87% 30.23 in 10.0 mi NNW 16.1 mph - 0.00 in   Overcast
2:52 AM 39.9 °F 30.5 °F 35.1 °F 83% 30.22 in 8.0 mi North 19.6 mph - 0.00 in   Overcast
2:57 AM 39.2 °F 30.8 °F 35.6 °F 87% 30.22 in 4.0 mi North 15.0 mph - 0.00 in   Light Drizzle
3:10 AM 39.2 °F 30.8 °F 35.6 °F 87% 30.23 in 4.0 mi North 15.0 mph - 0.00 in   Light Drizzle
3:22 AM 39.2 °F 30.2 °F 35.6 °F 87% 30.23 in 8.0 mi North 17.3 mph - 0.00 in   Overcast
3:36 AM 39.2 °F 29.8 °F 33.8 °F 81% 30.23 in 10.0 mi North 18.4 mph 23.0 mph 0.00 in   Overcast
3:52 AM 39.0 °F 31.4 °F 34.0 °F 82% 30.23 in 10.0 mi North 12.7 mph 20.7 mph 0.00 in   Overcast
4:09 AM 39.2 °F 31.2 °F 33.8 °F 81% 30.23 in 10.0 mi North 13.8 mph - N/A   Overcast
4:52 AM 39.0 °F 30.6 °F 34.0 °F 82% 30.26 in 10.0 mi North 15.0 mph - N/A   Overcast
5:11 AM 39.2 °F 31.6 °F 33.8 °F 81% 30.26 in 10.0 mi North 12.7 mph - N/A   Overcast
5:52 AM 39.0 °F 30.3 °F 33.1 °F 79% 30.29 in 10.0 mi North 16.1 mph 21.9 mph N/A   Overcast
6:04 AM 39.2 °F 31.6 °F 33.8 °F 81% 30.29 in 10.0 mi North 12.7 mph - N/A   Mostly Cloudy
6:52 AM 37.9 °F 28.9 °F 32.0 °F 79% 30.31 in 10.0 mi North 16.1 mph - N/A   Mostly Cloudy
7:52 AM 37.9 °F 29.6 °F 30.9 °F 76% 30.35 in 10.0 mi North 13.8 mph - N/A   Mostly Cloudy
8:52 AM 39.0 °F 31.4 °F 32.0 °F 76% 30.38 in 10.0 mi North 12.7 mph - N/A   Mostly Cloudy
9:52 AM 42.1 °F 36.6 °F 33.1 °F 70% 30.40 in 10.0 mi North 9.2 mph - N/A   Mostly Cloudy
9:56 AM 42.8 °F 37.0 °F 33.8 °F 70% 30.40 in 10.0 mi NNW 10.4 mph - N/A   Mostly Cloudy
10:01 AM 42.8 °F 38.0 °F 33.8 °F 70% 30.40 in 10.0 mi North 8.1 mph - N/A   Mostly Cloudy
10:17 AM 42.8 °F 35.8 °F 32.0 °F 66% 30.41 in 10.0 mi NNW 13.8 mph - N/A   Mostly Cloudy
10:35 AM 42.8 °F 37.0 °F 33.8 °F 70% 30.42 in 10.0 mi NW 10.4 mph - N/A   Mostly Cloudy
10:38 AM 42.8 °F 36.6 °F 33.8 °F 70% 30.42 in 10.0 mi NW 11.5 mph - N/A   Mostly Cloudy
10:52 AM 42.1 °F 34.9 °F 32.0 °F 67% 30.42 in 10.0 mi NNW 13.8 mph - N/A   Mostly Cloudy
11:27 AM 44.6 °F 36.9 °F 30.2 °F 57% 30.41 in 10.0 mi NNW 18.4 mph - N/A   Mostly Cloudy
11:52 AM 44.1 °F 39.0 °F 30.0 °F 58% 30.41 in 10.0 mi NW 9.2 mph - N/A   Mostly Cloudy
12:52 PM 44.1 °F 37.1 °F 28.9 °F 55% 30.41 in 10.0 mi NNW 15.0 mph - N/A   Mostly Cloudy
1:52 PM 43.0 °F 36.8 °F 28.0 °F 56% 30.40 in 10.0 mi North 11.5 mph - N/A   Mostly Cloudy
2:52 PM 42.1 °F 34.9 °F 27.0 °F 55% 30.41 in 10.0 mi NNW 13.8 mph - N/A   Mostly Cloudy
3:52 PM 41.0 °F 33.9 °F 26.1 °F 55% 30.43 in 10.0 mi NW 12.7 mph - N/A   Overcast
4:52 PM 39.9 °F 31.8 °F 24.1 °F 53% 30.45 in 10.0 mi NNW 15.0 mph - N/A   Overcast
5:52 PM 39.0 °F 32.8 °F 23.0 °F 53% 30.48 in 10.0 mi NW 9.2 mph - N/A   Mostly Cloudy
6:52 PM 37.0 °F 29.8 °F 21.0 °F 52% 30.51 in 10.0 mi North 10.4 mph 21.9 mph N/A   Mostly Cloudy
7:52 PM 37.0 °F 28.9 °F 19.9 °F 50% 30.53 in 10.0 mi NNW 12.7 mph - N/A   Mostly Cloudy
8:52 PM 37.0 °F 28.5 °F 19.9 °F 50% 30.53 in 10.0 mi NNW 13.8 mph - N/A   Scattered Clouds
9:52 PM 36.0 °F 28.5 °F 19.9 °F 52% 30.56 in 10.0 mi NNW 10.4 mph - N/A   Mostly Cloudy
10:52 PM 34.0 °F 26.6 °F 19.9 °F 56% 30.55 in 10.0 mi NNW 9.2 mph - N/A   Mostly Cloudy
11:52 PM 33.1 °F 25.5 °F 19.9 °F 59% 30.56 in 10.0 mi North 9.2 mph - N/A   Mostly Cloudy